Погода в Сергиевке

Россия / Тамбовская область     51°46′30″N   41°05′12″E
темп.,
°C
ветер,
м/с
пор.,
м/с
влажн.,
%
обл.,
%
осадки,
мм/ч
давл.,
гПа
погр.,
м
8 мая, сб
сб800:00+7ююв34815 0.0 101748
03:00+6ююв4689100 0.0 101797
06:00+7юв4986100 0.0 1016209
09:00+12ююв696335 0.0 1015594
12:00+16ююв81155100 0.0 10121167
15:00+16ю71265100 0.0 1010919
18:00+14ююз81583100 2.7 1008868
21:00+12ююз61394100 3.9 1008628
9 мая, вс
вс900:00+12зюз6993100 0.8 1008591
03:00+9з6993100 3.8 1009467
06:00+6з5890100 0.1 1011666
09:00+6зсз6990100 0.2 1013739
12:00+7сз71079100 0.2 10141112
15:00+9ссз71072100 0.3 10161402
18:00+8ссз71176100 0.3 10181094
21:00+7ссз61376100 0.3 1020856
10 мая, пн
пн1000:00+6ссз61381100 0.0 1021643
03:00+5с71578100 0.0 1022658
06:00+6с81676100 0.0 1024854
09:00+9ссв101764100 0.0 10241221
12:00+9ссв101763100 0.0 10231047
15:00+9св91764100 0.2 1023957
18:00+10ссв101864100 0.0 1023747
21:00+10св101963100 0.0 1023681
11 мая, вт
вт1100:00+9св91868100 0.0 1023640
03:00+8св91775100 0.0 1022459
06:00+8св91880100 0.3 1023515
09:00+9всв81691100 1.9 1024593
12:00+14всв788077 0.7 1024835
15:00+15всв598196 0.8 1025904
18:00+13ссв3996100 1.9 1023328
21:00+12св2398100 13.9 1023130
12 мая, ср
ср1200:00+12в31097100 3.2 1024630
03:00+12всв4998100 3.8 1023448
06:00+11всв61397100 6.3 1022492
09:00+12в61293100 9.4 1022599
12:00+17в7108193 0.2 1021992
15:00+18в7107672 0.4 10211125
18:00+17в6148394 0.5 1021779
21:00+15в51483100 0.5 1020420